Cleveland, OH

12:01 PM EST on December 04, 2016 (GMT -0500)
Cleveland-Hopkins International

Weather History for KCLE - March, 2014

Change the Weather History Date:

Friday, March 14, 2014

  Actual Average Record
Temperature  
Mean Temperature 45 °F 38 °F  
Max Temperature 59 °F 46 °F 79 °F (1990)
Min Temperature 30 °F 29 °F 6 °F (1993)
Degree Days  
Heating Degree Days 20 27  
Month to date heating degree days 495 412  
Since 1 July heating degree days 5176 4629  
Cooling Degree Days 0 0  
Month to date cooling degree days 0 0  
Year to date cooling degree days 0 0  
Moisture  
Dew Point 26 °F    
Average Humidity 50    
Maximum Humidity 61    
Minimum Humidity 39    
Precipitation  
Precipitation 0.02 in 0.09 in 1.28 in (2007)
Month to date precipitation 0.85 1.21  
Year to date precipitation 5.88 6.27  
Snow  
Snow 0.00 in 0.40 in - ()
Month to date snowfall 7.3 6.6  
Since 1 July snowfall 77.0 58.8  
Snow Depth 3.00 in    
Sea Level Pressure  
Sea Level Pressure 29.85 in    
Wind  
Wind Speed 18 mph (SSW)    
Max Wind Speed 31 mph    
Max Gust Speed 42 mph    
Visibility 10 miles    
Events Rain    
T = Trace of Precipitation, MM = Missing Value Source: NWS Daily Summary

Daily Weather History Graph

Daily Weather History Graph

Search for Another Location

Airport or City:

Trip Planner

Search our weather history database for the weather conditions in past years. The results will help you decide how hot, cold, wet, or windy it might be!

Date:

Astronomy

Mar. 14, 2014 Rise Set
Actual Time 7:40 AM EDT 7:32 PM EDT
Civil Twilight 7:13 AM EDT 8:00 PM EDT
Nautical Twilight 6:41 AM EDT 8:32 PM EDT
Astronomical Twilight 6:08 AM EDT 9:05 PM EDT
Moon 5:53 PM EDT (3/14) 6:21 AM EDT (3/14)
Length of Visible Light 12h 47m
Length of Day
11h 52m
Waxing Gibbous, 96% of the Moon is Illuminated
Mar 14
Waxing Gibbous
Mar 16
Full
Mar 23
Last Quarter
Mar 30
New
Apr 7
First Quarter

Hourly Weather History & Observations

Time (EDT) Temp. Windchill Dew Point Humidity Pressure Visibility Wind Dir Wind Speed Gust Speed Precip Events Conditions
12:51 AM 30.0 °F 21.1 °F 15.1 °F 54% 30.07 in 10.0 mi South 10.4 mph - N/A   Overcast
1:51 AM 30.0 °F 20.0 °F 15.1 °F 54% 30.05 in 10.0 mi South 12.7 mph - N/A   Scattered Clouds
2:51 AM 30.9 °F 21.2 °F 15.1 °F 52% 30.04 in 10.0 mi South 12.7 mph - N/A   Scattered Clouds
3:51 AM 32.0 °F 21.2 °F 16.0 °F 52% 30.01 in 10.0 mi South 16.1 mph - N/A   Scattered Clouds
4:51 AM 33.1 °F 23.9 °F 17.1 °F 52% 29.99 in 10.0 mi South 12.7 mph - N/A   Mostly Cloudy
5:51 AM 34.0 °F 24.6 °F 19.0 °F 54% 29.97 in 10.0 mi South 13.8 mph - N/A   Partly Cloudy
6:51 AM 35.1 °F 25.5 °F 19.9 °F 54% 29.96 in 10.0 mi South 15.0 mph - N/A   Clear
7:51 AM 36.0 °F 27.1 °F 19.9 °F 52% 29.94 in 10.0 mi South 13.8 mph - N/A   Clear
8:51 AM 37.9 °F 28.5 °F 21.0 °F 51% 29.93 in 10.0 mi South 17.3 mph 25.3 mph N/A   Partly Cloudy
9:51 AM 39.0 °F 29.6 °F 21.0 °F 49% 29.91 in 10.0 mi South 18.4 mph 27.6 mph N/A   Scattered Clouds
10:51 AM 42.1 °F 33.6 °F 23.0 °F 47% 29.88 in 10.0 mi South 18.4 mph 31.1 mph N/A   Mostly Cloudy
11:51 AM 45.0 °F 37.4 °F 25.0 °F 46% 29.86 in 10.0 mi South 18.4 mph 27.6 mph N/A   Mostly Cloudy
12:51 PM 48.0 °F - 27.0 °F 44% 29.83 in 10.0 mi South 18.4 mph 27.6 mph N/A   Overcast
1:51 PM 51.1 °F - 28.9 °F 43% 29.79 in 10.0 mi SSW 20.7 mph 29.9 mph N/A   Mostly Cloudy
2:51 PM 54.0 °F - 30.9 °F 41% 29.73 in 10.0 mi SSW 19.6 mph 31.1 mph N/A   Mostly Cloudy
3:51 PM 55.9 °F - 32.0 °F 40% 29.70 in 10.0 mi SSW 20.7 mph 32.2 mph N/A   Mostly Cloudy
4:51 PM 57.9 °F - 33.1 °F 39% 29.67 in 10.0 mi SSW 19.6 mph 34.5 mph N/A   Mostly Cloudy
5:51 PM 57.9 °F - 32.0 °F 37% 29.67 in 10.0 mi SW 27.6 mph 35.7 mph N/A   Scattered Clouds
6:51 PM 55.9 °F - 32.0 °F 40% 29.68 in 10.0 mi SW 16.1 mph 25.3 mph N/A   Overcast
7:51 PM 55.0 °F - 33.1 °F 43% 29.69 in 10.0 mi SW 13.8 mph - N/A   Overcast
8:51 PM 53.1 °F - 36.0 °F 52% 29.72 in 10.0 mi West 24.2 mph 31.1 mph 0.00 in Rain Light Rain
9:51 PM 51.1 °F - 37.9 °F 61% 29.72 in 10.0 mi SW 17.3 mph 25.3 mph 0.01 in Rain Light Rain
10:51 PM 51.1 °F - 36.0 °F 56% 29.74 in 10.0 mi West 26.5 mph 36.8 mph 0.01 in   Overcast
11:51 PM 48.9 °F - 35.1 °F 59% 29.75 in 10.0 mi WSW 16.1 mph 27.6 mph N/A   Overcast